This is the latest recevied weather packets stored in our database for station/object W0AKO. If no packets are shown the sender has not sent any weather packets the latest 10 day(s).
| Time | Temp. | Humidity | Pressure | Rain* | Wind** | Luminosity | Snow |
|---|---|---|---|---|---|---|---|
| 1777542768 | 14.44° C | 10% | 1016.7 hPa | 0 mm | - | 0 W/m² | - |
| 1777542465 | 14.44° C | 10% | 1016.7 hPa | 0 mm | - | 0 W/m² | - |
| 1777542161 | 13.89° C | 10% | 1016.8 hPa | 0 mm | - | 0 W/m² | - |
| 1777541858 | 13.89° C | 10% | 1016.5 hPa | 0 mm | - | 0 W/m² | - |
| 1777541555 | 15° C | 10% | 1016.6 hPa | 0 mm | - | 0 W/m² | - |
| 1777541252 | 15.56° C | 10% | 1016.6 hPa | 0 mm | - | 0 W/m² | - |
| 1777540948 | 15° C | 10% | 1016.5 hPa | 0 mm | - | 0 W/m² | - |
| 1777540646 | 14.44° C | 10% | 1016.7 hPa | 0 mm | - | 0 W/m² | - |
| 1777540343 | 14.44° C | 10% | 1016.8 hPa | 0 mm | - | 0 W/m² | - |
| 1777540039 | 15° C | 10% | 1016.6 hPa | 0 mm | - | 0 W/m² | - |
| 1777539734 | 15° C | 10% | 1016.6 hPa | 0 mm | - | 0 W/m² | - |
| 1777539431 | 15.56° C | 10% | 1016.7 hPa | 0 mm | - | 0 W/m² | - |
| 1777539127 | 15.56° C | 10% | 1016.7 hPa | 0 mm | - | 0 W/m² | - |
| 1777538824 | 16.11° C | 10% | 1016.8 hPa | 0 mm | - | 0 W/m² | - |
| 1777538524 | 15° C | 10% | 1016.7 hPa | 0 mm | - | 0 W/m² | - |
| 1777538220 | 15.56° C | 10% | 1016.8 hPa | 0 mm | - | 0 W/m² | - |
| 1777537915 | 16.67° C | 10% | 1016.8 hPa | 0 mm | - | 0 W/m² | - |
| 1777537612 | 16.67° C | 10% | 1016.9 hPa | 0 mm | - | 0 W/m² | - |
| 1777537308 | 16.67° C | 10% | 1016.5 hPa | 0 mm | - | 0 W/m² | - |
| 1777537004 | 16.67° C | 10% | 1016.6 hPa | 0 mm | - | 0 W/m² | - |
| 1777536702 | 16.11° C | 10% | 1016.6 hPa | 0 mm | - | 0 W/m² | - |
| 1777536399 | 16.11° C | 10% | 1016.7 hPa | 0 mm | - | 0 W/m² | - |
| 1777536095 | 16.11° C | 10% | 1016.8 hPa | 0 mm | - | 0 W/m² | - |
| 1777535791 | 16.11° C | 10% | 1016.7 hPa | 0 mm | - | 0 W/m² | - |
| 1777535488 | 16.11° C | 10% | 1016.7 hPa | 0 mm | - | 0 W/m² | - |
* Rain latest hour (hover to see other rain measurements)
** Current wind speed in m/s (hover to see current wind gust speed)